Radiation Dose measured at exhaust stack monitor of Miscellaneous Solid Waste Incinerator Building/Incinerator raregas monitor
Date,Time,Incinerator Gas Monitor(cps),Wind Direction,Wind Velocity(m/s)
2022/05/01,00:00,1.5,south-southwest,8.6
2022/05/01,00:10,1.4,south-southwest,8.4
2022/05/01,00:20,1.4,south-southwest,8.0
2022/05/01,00:30,1.5,south-southwest,7.9
2022/05/01,00:40,1.4,south-southwest,8.8
2022/05/01,00:50,1.5,south-southwest,8.3
2022/05/01,01:00,1.5,south-southwest,8.2
2022/05/01,01:10,1.4,south-southwest,8.2
2022/05/01,01:20,1.4,south-southwest,7.8
2022/05/01,01:30,1.5,south-southwest,8.3
2022/05/01,01:40,1.5,south-southwest,8.5
2022/05/01,01:50,1.5,south-southwest,8.7
2022/05/01,02:00,1.5,south-southwest,8.5
2022/05/01,02:10,1.5,south-southwest,8.1
2022/05/01,02:20,1.5,south-southwest,7.5
2022/05/01,02:30,1.5,south-southwest,7.8
2022/05/01,02:40,1.5,south-southwest,7.9
2022/05/01,02:50,1.5,south-southwest,8.3
2022/05/01,03:00,1.4,south-southwest,7.4
2022/05/01,03:10,1.5,south-southwest,5.6
2022/05/01,03:20,1.5,south-southwest,5.1
2022/05/01,03:30,1.5,south-southwest,5.0
2022/05/01,03:40,1.5,south-southwest,6.0
2022/05/01,03:50,1.5,south-southwest,7.5
2022/05/01,04:00,1.4,south,8.3
2022/05/01,04:10,1.4,south-southwest,7.7
2022/05/01,04:20,1.5,south-southwest,8.0
2022/05/01,04:30,1.5,south-southwest,8.7
2022/05/01,04:40,1.5,south-southwest,9.0
2022/05/01,04:50,1.4,south-southwest,8.9
2022/05/01,05:00,1.5,south,9.7
2022/05/01,05:10,1.5,south-southwest,9.4
2022/05/01,05:20,1.5,south,10.5
2022/05/01,05:30,1.4,south,8.9
2022/05/01,05:40,1.5,south,10.3
2022/05/01,05:50,1.6,south-southwest,9.8
2022/05/01,06:00,1.6,south,10.2
2022/05/01,06:10,1.5,south-southwest,9.7
2022/05/01,06:20,1.5,south,9.6
2022/05/01,06:30,1.5,south,10.2
2022/05/01,06:40,1.5,south-southwest,10.0
2022/05/01,06:50,1.5,south,10.5
2022/05/01,07:00,1.5,south,9.1
2022/05/01,07:10,1.5,south,8.3
2022/05/01,07:20,1.5,south,7.3
2022/05/01,07:30,1.4,south-southwest,7.9
2022/05/01,07:40,1.5,south-southwest,6.0
2022/05/01,07:50,1.5,south,7.6
2022/05/01,08:00,1.5,south,8.2
2022/05/01,08:10,1.5,south,9.0
2022/05/01,08:20,1.5,south,7.0
2022/05/01,08:30,1.6,south,8.4
2022/05/01,08:40,1.5,south,8.0
2022/05/01,08:50,1.5,south,8.9
2022/05/01,09:00,1.5,south,10.9
2022/05/01,09:10,1.5,south,10.2
2022/05/01,09:20,1.5,south,12.4
2022/05/01,09:30,1.4,south-southwest,9.7
2022/05/01,09:40,1.5,south,9.8
2022/05/01,09:50,1.5,south-southwest,9.7
2022/05/01,10:00,1.5,south-southwest,8.5
2022/05/01,10:10,1.5,south-southwest,8.7
2022/05/01,10:20,1.6,south,8.4
2022/05/01,10:30,1.5,south,6.9
2022/05/01,10:40,1.5,south-southwest,8.5
2022/05/01,10:50,1.5,south-southwest,9.3
2022/05/01,11:00,1.5,south,8.0
2022/05/01,11:10,1.5,south,7.9
2022/05/01,11:20,1.5,south,8.0
2022/05/01,11:30,1.5,south,9.1
2022/05/01,11:40,1.5,south,9.8
2022/05/01,11:50,1.4,south-southwest,6.4
2022/05/01,12:00,1.5,south,9.1
2022/05/01,12:10,1.5,south-southeast,6.7
2022/05/01,12:20,1.6,south-southeast,8.3
2022/05/01,12:30,1.4,south-southeast,9.0
2022/05/01,12:40,1.5,south-southeast,8.0
2022/05/01,12:50,1.5,south,6.0
2022/05/01,13:00,1.4,south,8.1
2022/05/01,13:10,1.5,south,8.9
2022/05/01,13:20,1.5,south,8.2
2022/05/01,13:30,1.5,south,9.7
2022/05/01,13:40,1.5,south,8.7
2022/05/01,13:50,1.4,south,7.9
2022/05/01,14:00,1.5,south,7.6
2022/05/01,14:10,1.6,south-southwest,7.5
2022/05/01,14:20,1.5,-,CALM
2022/05/01,14:30,1.6,south-southwest,7.9
2022/05/01,14:40,1.4,south,7.8
2022/05/01,14:50,1.5,south,5.9
2022/05/01,15:00,1.5,south,5.5
2022/05/01,15:10,1.5,south,5.1
2022/05/01,15:20,1.5,south,8.4
2022/05/01,15:30,1.6,south-southwest,6.0
2022/05/01,15:40,1.4,south-southwest,5.5
2022/05/01,15:50,1.6,south-southwest,1.5
2022/05/01,16:00,1.5,north,4.2
2022/05/01,16:10,1.5,north,5.1
2022/05/01,16:20,1.5,north-northwest,6.5
2022/05/01,16:30,1.6,-,CALM
2022/05/01,16:40,1.5,north-northwest,9.0
2022/05/01,16:50,1.5,north,8.6
2022/05/01,17:00,1.5,-,CALM
2022/05/01,17:10,1.5,north-northwest,8.9
2022/05/01,17:20,1.6,north-northwest,4.2
2022/05/01,17:30,1.5,north,6.7
2022/05/01,17:40,1.5,north,9.8
2022/05/01,17:50,1.5,north,7.4
2022/05/01,18:00,1.5,north,6.8
2022/05/01,18:10,1.5,north-northeast,5.6
2022/05/01,18:20,1.5,north,7.4
2022/05/01,18:30,1.5,north,7.8
2022/05/01,18:40,1.5,north-northwest,6.6
2022/05/01,18:50,1.5,north-northwest,5.7
2022/05/01,19:00,1.5,north-northwest,4.7
2022/05/01,19:10,1.6,north,4.9
2022/05/01,19:20,1.5,north,5.1
2022/05/01,19:30,1.5,north,4.5
2022/05/01,19:40,1.5,north,5.7
2022/05/01,19:50,1.5,north,6.5
2022/05/01,20:00,1.5,north,6.1
2022/05/01,20:10,1.5,north,6.2
2022/05/01,20:20,1.5,north,7.0
2022/05/01,20:30,1.4,north,7.0
2022/05/01,20:40,1.5,north,6.2
2022/05/01,20:50,1.5,north,6.8
2022/05/01,21:00,1.6,north,7.3
2022/05/01,21:10,1.5,north,6.3
2022/05/01,21:20,1.5,north,5.9
2022/05/01,21:30,1.4,north-northwest,5.5
2022/05/01,21:40,1.4,north,6.0
2022/05/01,21:50,1.5,north-northwest,4.8
2022/05/01,22:00,1.5,north-northwest,5.1
2022/05/01,22:10,1.5,north-northwest,5.4
2022/05/01,22:20,1.5,north-northwest,6.0
2022/05/01,22:30,1.5,north,6.1
2022/05/01,22:40,1.5,north,5.4
2022/05/01,22:50,1.4,north,5.6
2022/05/01,23:00,1.5,north-northwest,5.7
2022/05/01,23:10,1.5,north-northwest,5.7
2022/05/01,23:20,1.5,north-northwest,5.8
2022/05/01,23:30,1.5,north-northwest,4.7
2022/05/01,23:40,1.5,north-northwest,3.9
2022/05/01,23:50,1.5,north-northwest,4.1
